Track STARLINK-3460 now! 10-day predictions STARLINK-3460 is classified as:
1 51755U 22016AT 22224.91668981 .00007451 00000-0 48586-3 0 9995 2 51755 53.2163 46.4787 0001643 57.9705 51.4623 15.08832667 27846